sat.trackr.live / text

‹ back to catalog

HULIANWANG DIGUI-30

NORAD 64283 · 2025-121A

PAYLOAD ACTIVE UNKNOWN

§ Identity

Operator
Country
PRC
Launch date
2025-06-05
Launch site
TAISC
Launch vehicle
Mass (kg)
RCS (m²)

External: N2YO · Heavens-Above · Gunter

§ Orbital elements

Epoch: 2026-05-25T03:01:19.285824Z

Period
108.73 min
Inclination
86.5008°
Eccentricity
0.0001722
Mean motion
13.24410306 rev/d
Perigee alt
1,166.6 km
Apogee alt
1,169.2 km
Semi-major
7,546.1 km
B*
9.0715e-5
RAAN
21.3430°
Arg perigee
88.4407°
Mean anomaly
271.6924°
Rev number
4,710

§ Raw data

HULIANWANG DIGUI-301 64283U 25121A   26145.12591766  .00000054  00000+0  90715-4 0  99932 64283  86.5008  21.3430 0001722  88.4407 271.6924 13.24410306 47105

JSON: /api/v1/satellites/64283 · /tle

For live sub-satellite position, see the globe view (requires WebGL).

§ Visibility from observer

Set your observer location to see the next 7 days of passes ≥ 10°. The values pass through the URL so the page stays shareable.

No JS? Fill the form by hand. The geolocation button needs JavaScript.